"2010-08-12 00:00:00",63661,8.31,303.1,3.69,0.861,22.08,109.9324,24.72,25.62,24.49,0,111.3,13.09,25.56,265.1
"2010-08-12 00:00:30",63662,8.88,300.4,1.413,0.338,22.25,109.9327,24.72,25.61,23.44,0,111.3,13.09,25.56,262.4
"2010-08-12 00:01:00",63663,8.75,301.8,2.11,0.207,22.17,109.9327,24.72,25.62,23.74,0,111.3,13.09,25.56,263.8
"2010-08-12 00:01:30",63664,8.48,302.2,2.316,0.537,22.26,109.9327,24.72,25.62,23.49,0,111.3,13.09,25.56,264.2
"2010-08-12 00:02:00",63665,8.66,299.5,3.223,0.315,22.32,109.9366,24.73,25.64,22.89,0,111.3,13.09,25.57,261.5
"2010-08-12 00:02:30",63666,8.38,304.6,2.672,0.344,22.18,109.9363,24.73,25.63,23.57,0,111.3,13.09,25.57,266.6
"2010-08-12 00:03:00",63667,7.992,301.4,1.899,0.404,22.28,109.9344,24.73,25.64,23.2,0,111.3,13.09,25.56,263.4
"2010-08-12 00:03:30",63668,8.22,303,3.869,0.31,22.21,109.9329,24.72,25.65,23.49,0,111.3,13.09,25.56,265.0
"2010-08-12 00:04:00",63669,8.27,309.5,1.996,0.205,22.12,109.9345,24.73,25.64,24.17,0,111.3,13.09,25.56,271.5
"2010-08-12 00:04:30",63670,8.31,305.8,2.162,0.205,22.17,109.928,24.71,25.64,23.94,0,111.3,13.09,25.55,267.8
"2010-08-12 00:05:00",63671,8.18,307.2,3.642,0.477,22.16,109.9146,24.68,25.61,24.26,0,111.3,13.09,25.51,269.2
"2010-08-12 00:05:30",63672,7.527,300,3.858,0.288,22.15,109.9135,24.67,25.6,24.42,0,111.3,13.09,25.51,262.0
"2010-08-12 00:06:00",63673,7.178,304.6,3.64,0.585,22.11,109.9113,24.67,25.57,24.56,0,111.3,13.09,25.50,266.6
"2010-08-12 00:06:30",63674,6.267,305,3.446,0.387,22.2,109.8894,24.61,25.54,24.36,0,111.3,13.09,25.45,267.0
"2010-08-12 00:07:00",63675,7.143,312.2,1.832,0.306,22.19,109.8891,24.61,25.53,24.35,0,111.3,13.09,25.45,274.2
"2010-08-12 00:07:30",63676,8.06,306.1,4.261,0.435,22.22,109.8906,24.61,25.51,24.4,0,111.3,13.09,25.45,268.1
"2010-08-12 00:08:00",63677,8.44,298.6,4.532,0.514,22.4,109.8931,24.62,25.5,23.17,0,111.3,13.09,25.46,260.6
"2010-08-12 00:08:30",63678,8.04,302.7,5.947,0.687,22.3,109.8934,24.62,25.52,23.57,0,111.3,13.09,25.46,264.7
"2010-08-12 00:09:00",63679,7.962,308.1,3.246,0.232,22.15,109.8955,24.63,25.51,24.18,0,111.3,13.09,25.46,270.1
"2010-08-12 00:09:30",63680,7.907,309.2,2.721,0.401,22.09,109.8968,24.63,25.51,25,0,111.3,13.1,25.47,271.2
"2010-08-12 00:10:00",63681,7.383,300.7,4.054,0.437,22.33,109.8999,24.64,25.5,23.56,0,111.3,13.1,25.48,262.7
"2010-08-12 00:10:30",63682,7.337,304.9,3.911,0.655,22.19,109.9014,24.64,25.5,24.37,0,111.3,13.1,25.48,266.9
"2010-08-12 00:11:00",63683,7.408,307,6.166,0.561,22.23,109.9023,24.64,25.5,23.99,0,111.2,13.1,25.48,269.0
"2010-08-12 00:11:30",63684,8.37,308.1,4.346,0.59,22.27,109.902,24.64,25.49,24.1,0,111.2,13.1,25.48,270.1
"2010-08-12 00:12:00",63685,7.301,315.7,5.79,0.662,22.31,109.9023,24.64,25.5,23.86,0,111.2,13.1,25.48,277.7
"2010-08-12 00:12:30",63686,7.27,313.9,2.465,0.29,22.1,109.8992,24.64,25.49,24.71,0,111.2,13.1,25.47,275.9
"2010-08-12 00:13:00",63687,9.03,312.9,4.889,0.655,22.42,109.8883,24.61,25.49,23.55,0,111.2,13.1,25.45,274.9
"2010-08-12 00:13:30",63688,8.68,310,3.622,0.586,22.36,109.9023,24.64,25.49,23.29,0,111.2,13.1,25.48,272.0
"2010-08-12 00:14:00",63689,8.03,317.4,5.597,0.386,22.25,109.9023,24.64,25.51,24.05,0,111.2,13.1,25.48,279.4
"2010-08-12 00:14:30",63690,7.725,310.2,3.393,0.413,22.16,109.9023,24.64,25.51,24.38,0,111.2,13.1,25.48,272.2
"2010-08-12 00:15:00",63691,6.974,320.5,4.638,0.511,22.13,109.8959,24.63,25.51,24.79,0,111.2,13.1,25.46,282.5
"2010-08-12 00:15:30",63692,6.415,318.7,2.645,0.318,22.06,109.8732,24.57,25.49,25.17,0,111.2,13.1,25.41,280.7
"2010-08-12 00:16:00",63693,7.912,312.4,5.592,0.563,22.29,109.8689,24.56,25.48,24.27,0,111.2,13.1,25.40,274.4
"2010-08-12 00:16:30",63694,7.133,310.4,4.074,0.291,22.17,109.8686,24.56,25.47,24.28,0,111.2,13.1,25.39,272.4
"2010-08-12 00:17:00",63695,6.52,311.4,3.213,0.545,22.13,109.8689,24.56,25.47,24.86,0,111.2,13.1,25.40,273.4
"2010-08-12 00:17:30",63696,6.957,310,2.717,0.242,22.1,109.8699,24.56,25.47,24.84,0,111.2,13.11,25.40,272.0
"2010-08-12 00:18:00",63697,6.422,314.6,5.076,0.409,22.04,109.8689,24.56,25.46,25.14,0,111.2,13.11,25.40,276.6
"2010-08-12 00:18:30",63698,6.603,307.1,7.93,0.607,22.33,109.8555,24.52,25.44,24.04,0,111.2,13.11,25.36,269.1
"2010-08-12 00:19:00",63699,5.358,316.8,6.26,0.57,22.09,109.8728,24.57,25.46,24.52,0,111.2,13.11,25.41,278.8
"2010-08-12 00:19:30",63700,6.433,312.5,3.643,0.89,22.07,109.8588,24.53,25.43,25.1,0,111.2,13.1,25.37,274.5
"2010-08-12 00:20:00",63701,6.368,305.8,5.017,0.958,22.16,109.859,24.53,25.43,24.52,0,111.2,13.11,25.37,267.8
"2010-08-12 00:20:30",63702,6.871,312.1,7.552,1.027,22.1,109.8628,24.54,25.44,24.72,0,111.2,13.11,25.38,274.1
"2010-08-12 00:21:00",63703,5.897,317.3,4.011,0.318,22.02,109.8593,24.53,25.43,25.27,0,111.2,13.11,25.37,279.3
"2010-08-12 00:21:30",63704,6.172,309,4.469,0.475,22.13,109.8609,24.54,25.42,24.32,0,111.2,13.11,25.37,271.0
"2010-08-12 00:22:00",63705,6.138,310.3,5.766,0.618,22.12,109.8669,24.55,25.42,24.12,0,111.2,13.11,25.39,272.3
"2010-08-12 00:22:30",63706,8.17,308.6,4.555,0.591,22.19,109.8849,24.6,25.45,23.43,0,111.2,13.11,25.44,270.6
"2010-08-12 00:23:00",63707,7.313,312.7,2.852,0.552,22.09,109.8964,24.63,25.47,23.89,0,111.2,13.11,25.47,274.7
"2010-08-12 00:23:30",63708,6.126,320.6,5.236,0.424,22.01,109.8964,24.63,25.47,24.09,0,111.2,13.11,25.47,282.6
"2010-08-12 00:24:00",63709,6.553,312.8,3.356,0.471,22.01,109.8998,24.64,25.48,23.62,0,111.2,13.11,25.47,274.8
"2010-08-12 00:24:30",63710,7.163,318.9,4.785,0.633,22,109.9155,24.68,25.49,23.62,0,111.2,13.11,25.52,280.9
"2010-08-12 00:25:00",63711,6.555,307.8,4.913,0.519,22.05,109.9307,24.72,25.52,23.58,0,111.2,13.11,25.55,269.8
"2010-08-12 00:25:30",63712,6.152,310.3,3.258,0.821,21.96,109.9323,24.72,25.53,24.31,0,111.2,13.11,25.56,272.3
"2010-08-12 00:26:00",63713,7.712,310.3,2.769,0.615,21.98,109.9218,24.69,25.54,24.58,0,111.2,13.11,25.53,272.3
"2010-08-12 00:26:30",63714,6.137,314.5,3.662,0.345,21.99,109.9085,24.66,25.52,24.78,0,111.2,13.11,25.50,276.5
"2010-08-12 00:27:00",63715,6.741,308.8,4.027,1.031,21.99,109.9007,24.64,25.52,24.22,0,111.2,13.11,25.48,270.8
"2010-08-12 00:27:30",63716,6.824,305.3,2.994,0.52,21.93,109.9023,24.64,25.51,24.11,0,111.2,13.11,25.48,267.3
"2010-08-12 00:28:00",63717,7.219,301.8,4.943,0.535,22.22,109.9095,24.66,25.53,22.99,0,111.2,13.11,25.50,263.8
"2010-08-12 00:28:30",63718,5.544,303.2,2.707,0.603,22.08,109.9351,24.73,25.54,23.29,0,111.2,13.12,25.57,265.2
"2010-08-12 00:29:00",63719,6.145,306.4,4.72,0.536,22.08,109.939,24.74,25.55,23.64,0,111.2,13.12,25.58,268.4
"2010-08-12 00:29:30",63720,6.355,303.9,4.236,0.657,22.11,109.9391,24.74,25.56,23.76,0,111.2,13.11,25.58,265.9
"2010-08-12 00:30:00",63721,5.191,300.8,4.68,0.48,22.14,109.9301,24.71,25.56,23.87,0,111.2,13.12,25.55,262.8
"2010-08-12 00:30:30",63722,6.587,308.2,3.509,0.818,22.22,109.9203,24.69,25.55,23.89,0,111.2,13.12,25.53,270.2
"2010-08-12 00:31:00",63723,6.924,305.9,5.213,0.624,22.36,109.929,24.71,25.56,22.98,0,111.2,13.12,25.55,267.9
"2010-08-12 00:31:30",63724,6.306,302.4,2.519,0.217,22.52,109.9408,24.74,25.57,22.23,0,111.2,13.12,25.58,264.4
"2010-08-12 00:32:00",63725,6.633,304.9,2.407,0.366,22.58,109.9671,24.81,25.62,21.65,0,111.2,13.12,25.65,266.9
"2010-08-12 00:32:30",63726,6.621,302.1,4.261,0.247,22.42,109.9826,24.85,25.66,21.84,0,111.2,13.12,25.69,264.1
"2010-08-12 00:33:00",63727,7.374,303.7,5.43,0.35,22.53,110.0042,24.91,25.68,21.48,0,111.2,13.12,25.74,265.7
"2010-08-12 00:33:30",63728,6.305,308.2,3.055,0.577,22.48,110.0166,24.94,25.72,21.19,0,111.2,13.12,25.78,270.2
"2010-08-12 00:34:00",63729,7.714,300.5,3.158,0.693,22.49,110.0396,25,25.76,21.18,0,111.2,13.12,25.84,262.5
"2010-08-12 00:34:30",63730,7.916,306.9,4.945,0.504,22.42,110.041,25,25.78,21.25,0,111.2,13.12,25.84,268.9
"2010-08-12 00:35:00",63731,7.39,312.3,4.074,0.773,22.34,110.0469,25.01,25.82,21.74,0,111.2,13.12,25.85,274.3
"2010-08-12 00:35:30",63732,5.326,306.6,5.045,0.518,22.28,110.0424,25,25.83,22.16,0,111.2,13.12,25.84,268.6
"2010-08-12 00:36:00",63733,5.849,322.1,5.031,0.487,22.27,110.0404,25,25.82,22.44,0,111.2,13.12,25.84,284.1
"2010-08-12 00:36:30",63734,7.144,324.4,4.681,0.55,22.26,110.0295,24.97,25.82,22.65,0,111.2,13.12,25.81,286.4
"2010-08-12 00:37:00",63735,6.012,318.6,2.445,0.353,22.15,110.009,24.92,25.81,23.29,0,111.2,13.12,25.76,280.6
"2010-08-12 00:37:30",63736,4.767,318.6,5.127,0.516,22.11,109.9826,24.85,25.77,23.41,0,111.2,13.12,25.69,280.6
"2010-08-12 00:38:00",63737,4.731,311.5,4.228,0.411,22.09,109.9638,24.8,25.73,23.81,0,111.2,13.12,25.64,273.5
"2010-08-12 00:38:30",63738,4.883,303.5,4.647,0.967,22.29,109.9399,24.74,25.71,23.4,0,111.2,13.11,25.58,265.5
"2010-08-12 00:39:00",63739,6.557,295.2,7.108,0.318,22.46,109.9396,24.74,25.69,22.21,0,111.2,13.11,25.58,257.2
"2010-08-12 00:44:30",63750,5.15,317.5,4.067,0.634,22.43,109.9997,24.89,25.74,21.87,0,111.2,13.12,25.73,279.5
"2010-08-12 00:45:00",63751,5.956,295.5,6.43,0.394,22.44,109.9968,24.89,25.76,22.17,0,111.2,13.13,25.73,257.5
"2010-08-12 00:45:30",63752,5.982,296.9,7.356,0.471,22.62,110.0054,24.91,25.77,21.48,0,111.2,13.13,25.75,258.9
"2010-08-12 00:46:00",63753,4.682,302.7,6.316,0.637,22.49,110.02,24.95,25.78,21.78,0,111.2,13.13,25.78,264.7
"2010-08-12 00:46:30",63754,4.935,297.7,6.176,0.36,22.46,110.0284,24.97,25.79,21.9,0,111.2,13.13,25.81,259.7
"2010-08-12 00:47:00",63755,5.893,298.9,2.977,0.543,22.66,110.0302,24.97,25.79,21.15,0,111.2,13.13,25.81,260.9
"2010-08-12 00:47:30",63756,6.008,305.3,3.986,0.351,22.57,110.0394,25,25.82,21.36,0,111.2,13.13,25.83,267.3
"2010-08-12 00:48:00",63757,6.032,301.2,6.48,0.478,22.59,110.0494,25.02,25.82,21.29,0,111.2,13.13,25.86,263.2
"2010-08-12 00:48:30",63758,5.837,300,4.977,0.446,22.46,110.0601,25.05,25.86,21.57,0,111.2,13.13,25.89,262.0
"2010-08-12 00:49:00",63759,5.984,304.2,2.781,0.378,22.26,110.0393,25,25.85,22.54,0,111.2,13.13,25.83,266.2
"2010-08-12 00:49:30",63760,4.531,312.7,5.597,0.687,22.3,110.0267,24.96,25.82,22.38,0,111.2,13.13,25.80,274.7
"2010-08-12 00:50:00",63761,4.509,315.5,4.005,0.602,22.23,110.0036,24.9,25.79,22.64,0,111.2,13.13,25.74,277.5
"2010-08-12 00:50:30",63762,6.562,298.9,7.173,0.906,22.72,110.0008,24.9,25.77,21.5,0,111.2,13.13,25.74,260.9
"2010-08-12 00:51:00",63763,6.983,299.4,2.653,0.467,22.83,110.016,24.94,25.79,20.52,0,111.2,13.13,25.77,261.4
"2010-08-12 00:51:30",63764,7.091,297.5,2.027,0.278,22.79,110.0374,24.99,25.83,20.46,0,111.2,13.13,25.83,259.5
"2010-08-12 00:52:00",63765,6.551,299.3,2.26,0.273,22.75,110.0655,25.06,25.86,20.5,0,111.2,13.13,25.90,261.3
"2010-08-12 00:52:30",63766,6.259,305.2,1.621,0.179,22.65,110.0708,25.08,25.89,20.69,0,111.2,13.13,25.92,267.2
"2010-08-12 00:53:00",63767,6.226,306.9,2.615,0.25,22.63,110.0824,25.11,25.93,20.82,0,111.2,13.13,25.95,268.9
"2010-08-12 00:53:30",63768,6.01,306.7,3.826,0.365,22.61,110.098,25.15,25.93,21,0,111.2,13.13,25.99,268.7
"2010-08-12 00:54:00",63769,5.952,299.9,3.603,0.37,22.71,110.1076,25.17,25.95,20.61,0,111.2,13.13,26.01,261.9
"2010-08-12 00:54:30",63770,6.555,299,4.55,0.557,22.78,110.109,25.17,25.98,20.23,0,111.1,13.13,26.01,261.0
"2010-08-12 00:55:00",63771,6.661,292.3,6.914,0.314,22.81,110.1237,25.21,26,20.14,0,111.2,13.13,26.05,254.3
"2010-08-12 00:55:30",63772,7.186,297,2.438,0.281,22.67,110.1429,25.26,26.04,20.38,0,111.1,13.13,26.10,259.0
"2010-08-12 00:56:00",63773,6.938,295.6,3.699,0.298,22.74,110.1443,25.27,26.05,20.46,0,111.1,13.13,26.11,257.6
"2010-08-12 00:56:30",63774,7.534,295,1.756,0.394,22.81,110.1443,25.27,26.05,20.04,0,111.1,13.12,26.11,257.0
"2010-08-12 00:57:00",63775,7.396,298.2,3.31,0.399,22.74,110.1446,25.27,26.07,20.24,0,111.1,13.12,26.11,260.2
"2010-08-12 00:57:30",63776,7.083,300,3.372,0.476,22.76,110.1469,25.27,26.09,20.15,0,111.1,13.12,26.11,262.0
"2010-08-12 00:58:00",63777,6.227,299.3,2.796,0.288,22.63,110.1477,25.27,26.11,20.49,0,111.1,13.12,26.11,261.3
"2010-08-12 00:58:30",63778,6.302,300.8,3.235,0.226,22.61,110.1449,25.27,26.1,20.66,0,111.1,13.12,26.11,262.8
"2010-08-12 00:59:00",63779,6.117,291.5,5.328,0.292,22.5,110.1407,25.26,26.1,21.15,0,111.1,13.13,26.10,253.5
"2010-08-12 00:59:30",63780,6.633,291.8,2.888,0.19,22.83,110.1334,25.24,26.09,20.17,0,111.1,13.12,26.08,253.8
"2010-08-12 01:00:00",63781,6.22,294.8,2.543,0.218,22.84,110.1432,25.26,26.1,20.05,0,111.1,13.13,26.10,256.8
"2010-08-12 01:00:30",63782,6.009,295.5,1.905,0.194,22.7,110.1449,25.27,26.1,20.32,0,111.1,13.13,26.11,257.5
"2010-08-12 01:01:00",63783,6.498,298.1,1.327,0.21,22.7,110.1449,25.27,26.12,20.3,0,111.1,13.13,26.11,260.1
"2010-08-12 01:01:30",63784,6.192,298.5,1.962,0.122,22.71,110.1449,25.27,26.11,20.32,0,111.1,13.13,26.11,260.5
"2010-08-12 01:02:00",63785,6.014,293.5,1.399,0.155,22.71,110.1449,25.27,26.13,20.3,0,111.1,13.13,26.11,255.5
"2010-08-12 01:02:30",63786,6.388,290.9,3.36,0.299,22.72,110.1449,25.27,26.15,20.26,0,111.1,13.13,26.11,252.9
"2010-08-12 01:03:00",63787,6.719,288.6,3.753,0.605,22.84,110.1449,25.27,26.13,19.99,0,111.1,13.13,26.11,250.6
"2010-08-12 01:03:30",63788,7.845,299.1,2.817,0.534,22.73,110.1449,25.27,26.14,20.2,0,111.1,13.13,26.11,261.1
"2010-08-12 01:04:00",63789,8.03,293.9,1.498,0.265,22.81,110.1511,25.28,26.14,19.93,0,111.1,13.13,26.12,255.9
"2010-08-12 01:04:30",63790,7.07,292,2.522,0.305,22.73,110.1531,25.29,26.16,20.16,0,111.1,13.13,26.13,254.0
"2010-08-12 01:05:00",63791,6.828,291.7,1.885,0.403,22.7,110.1511,25.28,26.17,20.23,0,111.1,13.13,26.12,253.7
"2010-08-12 01:05:30",63792,6.835,291.2,4.442,0.517,22.63,110.1455,25.27,26.15,20.43,0,111.1,13.14,26.11,253.2
"2010-08-12 01:06:00",63793,7.594,294,2.781,0.303,22.78,110.1449,25.27,26.15,20.21,0,111.1,13.14,26.11,256.0
"2010-08-12 01:06:30",63794,7.161,293.6,3.101,0.436,22.7,110.1449,25.27,26.16,20.34,0,111.1,13.13,26.11,255.6
"2010-08-12 01:07:00",63795,7.131,293,2.928,0.266,22.79,110.1449,25.27,26.15,20.12,0,111.1,13.14,26.11,255.0
"2010-08-12 01:07:30",63796,6.714,289,3.435,0.18,22.77,110.1449,25.27,26.16,20.11,0,111.1,13.14,26.11,251.0
"2010-08-12 01:08:00",63797,6.47,294.5,2.745,0.311,22.72,110.1463,25.27,26.16,20.24,0,111.1,13.14,26.11,256.5
"2010-08-12 01:08:30",63798,6.494,295.8,2.193,0.443,22.66,110.1449,25.27,26.17,20.33,0,111.1,13.14,26.11,257.8
"2010-08-12 01:09:00",63799,7.308,297.9,1.892,0.326,22.73,110.1449,25.27,26.17,20.38,0,111.1,13.14,26.11,259.9
"2010-08-12 01:09:30",63800,7.426,299.9,1.68,0.275,22.68,110.1449,25.27,26.17,20.47,0,111.1,13.13,26.11,261.9
"2010-08-12 01:10:00",63801,7.251,298.8,4.024,0.26,22.65,110.1449,25.27,26.18,20.49,0,111.1,13.14,26.11,260.8
"2010-08-12 01:10:30",63802,7.389,299.3,1.639,0.33,22.75,110.1449,25.27,26.17,20.47,0,111.1,13.14,26.11,261.3
"2010-08-12 01:11:00",63803,7.581,301.6,2.487,0.228,22.71,110.1449,25.27,26.16,20.5,0,111.1,13.14,26.11,263.6
"2010-08-12 01:11:30",63804,7.163,303.4,0.971,0.478,22.72,110.1449,25.27,26.17,20.57,0,111.1,13.14,26.11,265.4
"2010-08-12 01:12:00",63805,6.826,298.3,2.711,0.238,22.7,110.1449,25.27,26.18,20.56,0,111.1,13.14,26.11,260.3
"2010-08-12 01:12:30",63806,6.948,299.9,2.032,0.225,22.63,110.1449,25.27,26.17,20.73,0,111.1,13.13,26.11,261.9
"2010-08-12 01:13:00",63807,7.439,297.7,4.061,0.433,22.72,110.1446,25.27,26.17,20.64,0,111.1,13.13,26.11,259.7
"2010-08-12 01:13:30",63808,6.778,299.9,2.992,0.207,22.69,110.1427,25.26,26.16,20.73,0,111.1,13.13,26.10,261.9
"2010-08-12 01:14:00",63809,6.736,302,4.158,0.225,22.67,110.1373,25.25,26.16,20.8,0,111.1,13.13,26.09,264.0
"2010-08-12 01:14:30",63810,6.516,298.5,2.369,0.175,22.7,110.1345,25.24,26.14,20.83,0,111.1,13.13,26.08,260.5
"2010-08-12 01:15:00",63811,6.914,296.7,2.536,0.397,22.75,110.1241,25.21,26.14,20.76,0,111.1,13.13,26.05,258.7
"2010-08-12 01:15:30",63812,6.351,304.1,2.518,0.255,22.65,110.1214,25.21,26.13,20.8,0,111.1,13.13,26.05,266.1
"2010-08-12 01:16:00",63813,6.508,297.5,1.878,0.199,22.64,110.114,25.19,26.13,20.93,0,111.1,13.13,26.03,259.5
"2010-08-12 01:16:30",63814,6.554,294.9,2.121,0.189,22.8,110.1118,25.18,26.13,20.64,0,111.1,13.13,26.02,256.9
"2010-08-12 01:17:00",63815,6.363,297.3,2.805,0.14,22.76,110.1222,25.21,26.13,20.66,0,111.1,13.13,26.05,259.3
"2010-08-12 01:17:30",63816,6.327,300.6,3.487,0.295,22.67,110.1264,25.22,26.13,20.82,0,111.1,13.13,26.06,262.6
"2010-08-12 01:18:00",63817,6.399,296.4,4.49,0.318,22.64,110.1155,25.19,26.13,20.88,0,111.1,13.14,26.03,258.4
"2010-08-12 01:18:30",63818,6.992,291.3,2.009,0.229,22.77,110.1234,25.21,26.13,20.42,0,111.1,13.14,26.05,253.3
"2010-08-12 01:19:00",63819,6.829,287.9,1.491,0.314,22.71,110.1444,25.27,26.13,20.31,0,111.1,13.14,26.11,249.9
"2010-08-12 01:19:30",63820,6.358,292.9,2.24,0.305,22.59,110.1483,25.28,26.15,20.52,0,111.1,13.14,26.12,254.9
"2010-08-12 01:20:00",63821,7.155,291.2,1.821,0.244,22.64,110.1486,25.28,26.17,20.3,0,111.1,13.14,26.12,253.2
"2010-08-12 01:20:30",63822,6.623,291.4,3.054,0.32,22.5,110.1582,25.3,26.18,20.45,0,111.1,13.14,26.14,253.4
"2010-08-12 01:21:00",63823,6.685,289.9,1.563,0.301,22.47,110.1721,25.34,26.2,20.41,0,111.1,13.14,26.18,251.9
"2010-08-12 01:21:30",63824,7.122,289.3,1.533,0.188,22.46,110.189,25.38,26.21,20.41,0,111.1,13.14,26.22,251.3
"2010-08-12 01:22:00",63825,6.754,291.1,2.112,0.133,22.45,110.1904,25.38,26.23,20.4,0,111.1,13.14,26.22,253.1
"2010-08-12 01:22:30",63826,7.156,292.1,2.378,0.525,22.47,110.1904,25.38,26.23,20.43,0,111.1,13.14,26.22,254.1
"2010-08-12 01:23:00",63827,7.412,292.7,3.835,0.337,22.42,110.1929,25.39,26.24,20.5,0,111.1,13.14,26.23,254.7
"2010-08-12 01:23:30",63828,6.72,289.5,3.295,0.452,22.34,110.1934,25.39,26.25,20.64,0,111.1,13.14,26.23,251.5
"2010-08-12 01:24:00",63829,6.733,288.4,2.304,0.183,22.34,110.1904,25.38,26.27,20.61,0,111.1,13.14,26.22,250.4
"2010-08-12 01:24:30",63830,6.986,286.5,3.278,0.257,22.32,110.1913,25.39,26.27,20.71,0,111.1,13.14,26.23,248.5
"2010-08-12 01:25:00",63831,7.352,289.5,2.447,0.524,22.38,110.1873,25.38,26.28,20.64,0,111.1,13.14,26.22,251.5
"2010-08-12 01:25:30",63832,7.3,286.6,3.133,0.391,22.5,110.1924,25.39,26.28,20.39,0,111.1,13.14,26.23,248.6
"2010-08-12 01:26:00",63833,6.575,289.5,2.763,0.167,22.34,110.1905,25.38,26.28,20.64,0,111.1,13.14,26.22,251.5
"2010-08-12 01:26:30",63834,6.086,290.5,2.897,0.347,22.31,110.1839,25.37,26.28,20.68,0,111.1,13.14,26.21,252.5
"2010-08-12 01:27:00",63835,6.241,289.4,2.535,0.363,22.31,110.1802,25.36,26.27,20.75,0,111.1,13.14,26.20,251.4
"2010-08-12 01:27:30",63836,6.604,289.6,3.333,0.455,22.41,110.1802,25.36,26.27,20.5,0,111.1,13.14,26.20,251.6
"2010-08-12 01:28:00",63837,5.932,290,3.137,0.305,22.26,110.1792,25.36,26.28,20.83,0,111.1,13.14,26.20,252.0
"2010-08-12 01:28:30",63838,6.778,290.6,2.761,0.357,22.36,110.1789,25.35,26.27,20.68,0,111.1,13.14,26.19,252.6
"2010-08-12 01:29:00",63839,5.864,293.3,2.904,0.293,22.32,110.1786,25.35,26.27,20.76,0,111.1,13.14,26.19,255.3
"2010-08-12 01:29:30",63840,6.132,287.3,4.108,0.654,22.29,110.1786,25.35,26.27,20.89,0,111.1,13.13,26.19,249.3
"2010-08-12 01:30:00",63841,5.612,280.1,6.545,0.537,22.3,110.1767,25.35,26.25,20.88,0,111.1,13.13,26.19,242.1
"2010-08-12 01:30:30",63842,6.569,280.8,3.491,0.312,22.47,110.1699,25.33,26.24,20.81,0,111.1,13.13,26.17,242.8
"2010-08-12 01:31:00",63843,6.928,287.6,3.096,0.37,22.38,110.1778,25.35,26.24,20.86,0,111.1,13.13,26.19,249.6
"2010-08-12 01:31:30",63844,6.544,288.7,3.133,0.323,22.4,110.1784,25.35,26.24,20.9,0,111.1,13.13,26.19,250.7
"2010-08-12 01:32:00",63845,6.579,287.7,3.249,0.662,22.43,110.171,25.33,26.23,20.9,0,111.1,13.13,26.17,249.7
"2010-08-12 01:32:30",63846,7.299,285.1,2.414,0.243,22.58,110.1784,25.35,26.22,20.6,0,111.1,13.13,26.19,247.1
"2010-08-12 01:33:00",63847,7.098,288.4,2.421,0.305,22.46,110.1786,25.35,26.23,20.88,0,111.1,13.13,26.19,250.4
"2010-08-12 01:33:30",63848,6.618,284.2,1.665,0.464,22.45,110.1786,25.35,26.25,20.89,0,111.1,13.13,26.19,246.2
"2010-08-12 01:34:00",63849,6.625,283.7,3.703,0.445,22.54,110.1786,25.35,26.25,20.88,0,111.1,13.13,26.19,245.7
"2010-08-12 01:34:30",63850,6.72,276.6,3.096,0.501,22.62,110.1786,25.35,26.23,20.8,0,111.1,13.13,26.19,238.6
"2010-08-12 01:35:00",63851,6.968,278.8,2.73,0.326,22.86,110.1786,25.35,26.23,20.56,0,111.1,13.13,26.19,240.8
"2010-08-12 01:35:30",63852,7.188,275.7,3.921,0.278,22.96,110.182,25.36,26.26,20.28,0,111.1,13.13,26.20,237.7
"2010-08-12 01:36:00",63853,7.259,276.1,1.84,0.214,22.98,110.1918,25.39,26.26,20.31,0,111.1,13.14,26.23,238.1
"2010-08-12 01:36:30",63854,6.966,278.5,1.769,0.255,23.04,110.209,25.43,26.28,20.23,0,111.2,13.14,26.27,240.5
"2010-08-12 01:37:00",63855,7.032,275.8,2.536,0.407,23.02,110.2123,25.44,26.3,20.22,0,111.2,13.14,26.28,237.8
"2010-08-12 01:37:30",63856,7.223,274,2.061,0.253,23.13,110.2146,25.45,26.31,20.02,0,111.2,13.14,26.29,236.0
"2010-08-12 01:38:00",63857,7.656,273.6,3.18,0.339,23.26,110.2365,25.5,26.34,19.72,0,111.2,13.14,26.34,235.6
"2010-08-12 01:38:30",63858,7.999,271.2,0.603,0.285,23.37,110.2477,25.53,26.37,19.35,0,111.2,13.14,26.37,233.2
"2010-08-12 01:39:00",63859,8.42,271,1.197,0.245,23.5,110.275,25.6,26.4,18.97,0,111.2,13.14,26.44,233.0
"2010-08-12 01:39:30",63860,8.14,269.2,1.53,0.397,23.4,110.2882,25.64,26.43,19.06,0,111.2,13.14,26.48,231.2
"2010-08-12 01:40:00",63861,8.41,269.5,1.51,0.258,23.48,110.3126,25.7,26.48,18.82,0,111.2,13.14,26.54,231.5
"2010-08-12 01:40:30",63862,8.14,270.1,1.01,0.263,23.27,110.3216,25.72,26.51,19.05,0,111.2,13.14,26.56,232.1
"2010-08-12 01:41:00",63863,7.953,269.1,1.216,0.255,23.23,110.341,25.77,26.55,19.25,0,111.2,13.14,26.61,231.1
"2010-08-12 01:41:30",63864,8.02,269.2,1.038,0.222,23.23,110.3472,25.79,26.59,19.23,0,111.2,13.14,26.63,231.2
"2010-08-12 01:42:00",63865,8.28,268.9,1.119,0.233,23.22,110.3472,25.79,26.59,19.24,0,111.2,13.14,26.63,230.9
"2010-08-12 01:42:30",63866,8.17,268.7,1.466,0.208,23.27,110.3475,25.79,26.62,19.2,0,111.2,13.14,26.63,230.7
"2010-08-12 01:43:00",63867,7.975,267.9,1.201,0.218,23.21,110.3474,25.79,26.63,19.25,0,111.2,13.14,26.63,229.9
"2010-08-12 01:43:30",63868,8.1,266.9,1.145,0.393,23.26,110.3472,25.79,26.63,19.16,0,111.2,13.14,26.63,228.9
"2010-08-12 01:44:00",63869,8.84,267.2,1.15,0.276,23.5,110.353,25.8,26.67,18.75,0,111.2,13.14,26.64,229.2
"2010-08-12 01:44:30",63870,8.92,268,0.682,0.217,23.53,110.3769,25.86,26.68,18.38,0,111.2,13.14,26.71,230.0
"2010-08-12 01:45:00",63871,8.49,268.3,1.241,0.197,23.41,110.3809,25.87,26.71,18.64,0,111.2,13.14,26.72,230.3
"2010-08-12 01:45:30",63872,8.78,269.2,1.171,0.276,23.51,110.3943,25.91,26.74,18.44,0,111.2,13.14,26.75,231.2
"2010-08-12 01:46:00",63873,8.65,269.4,1.017,0.299,23.39,110.4134,25.96,26.77,18.62,0,111.2,13.14,26.80,231.4
"2010-08-12 01:46:30",63874,7.862,265.9,2.593,0.397,23.23,110.414,25.96,26.78,18.96,0,111.2,13.13,26.80,227.9
"2010-08-12 01:47:00",63875,7.972,265,1.518,0.254,23.43,110.4132,25.96,26.8,18.72,0,111.2,13.13,26.80,227.0
"2010-08-12 01:47:30",63876,7.635,263.3,1.82,0.331,23.38,110.414,25.96,26.8,18.63,0,111.1,13.13,26.80,225.3
"2010-08-12 01:48:00",63877,7.32,263.1,1.934,0.258,23.29,110.4146,25.96,26.81,18.94,0,111.2,13.13,26.80,225.1
"2010-08-12 01:48:30",63878,7.684,265.8,2.819,0.342,23.42,110.4143,25.96,26.81,18.68,0,111.2,13.13,26.80,227.8
"2010-08-12 01:49:00",63879,8.11,265.3,1.642,0.266,23.72,110.4149,25.96,26.83,18,0,111.1,13.13,26.80,227.3
"2010-08-12 01:49:30",63880,8.51,266.3,2.132,0.213,23.76,110.428,25.99,26.84,17.67,0,111.2,13.13,26.84,228.3
"2010-08-12 01:50:00",63881,7.796,265.9,1.99,0.381,23.34,110.4489,26.05,26.88,18.42,0,111.1,13.13,26.89,227.9
"2010-08-12 01:50:30",63882,7.853,266.1,2.133,0.518,23.51,110.4486,26.05,26.9,18.17,0,111.1,13.13,26.89,228.1
"2010-08-12 01:51:00",63883,7.785,265.4,1.602,0.257,23.52,110.4492,26.05,26.9,18.15,0,111.2,13.13,26.89,227.4
"2010-08-12 01:51:30",63884,7.678,264.4,1.29,0.171,23.6,110.4499,26.05,26.92,17.8,0,111.1,13.13,26.89,226.4
"2010-08-12 01:52:00",63885,7.319,261.9,1.273,0.18,23.51,110.4712,26.11,26.93,17.9,0,111.1,13.14,26.95,223.9
"2010-08-12 01:52:30",63886,7.333,262.1,1.886,0.206,23.4,110.4836,26.14,26.97,18.14,0,111.1,13.14,26.98,224.1
"2010-08-12 01:53:00",63887,7.364,264.4,2.789,0.349,23.44,110.4824,26.13,26.97,18.16,0,111.1,13.14,26.98,226.4
"2010-08-12 01:53:30",63888,8.12,265.7,1.439,0.399,23.71,110.4832,26.14,26.98,17.77,0,111.1,13.14,26.98,227.7